Location: Lucerne Valley
(34.4439°N, 116.9669°E)
Time: 08:58:29
(UTC-07:00)

N. Korean satellite - Pass Details

Date: 16 October 2017
Orbit: 459 x 517 km, 97.2° (Epoch: 19 October)

Event Time Altitude Azimuth Distance (km) Brightness Sun altitude
Rises 02:58:46 0° 154° (SSE) 2,546 10.0 -5.3°
Reaches altitude 10° 03:00:54 10° 148° (SSE) 1,659 9.0 -5.8°
Maximum altitude 03:04:18 44° 76° (ENE) 674 6.8 -6.4°
Drops below altitude 10° 03:07:40 10° 3° (N) 1,641 9.2 -7.1°
Sets 03:09:45 0° 357° (N) 2,513 10.2 -7.6°
